Regional Weather Roundup
Issued by NWS Albany, NY

Home | Current Version | Previous Version | Text Only | Print | Product List | Glossary On
Versions: 1 2 3 4 5 6 7 8 9 10 11 12 13 14 15 16 17 18 19 20 21 22 23 24 25 26 27 28 29 30 31 32 33 34 35 36 37 38 39 40 41 42 43 44 45 46 47 48 49 50
000
ASUS41 KALY 271710
RWRALY

NEW YORK STATE HOURLY WEATHER ROUNDUP
NATIONAL WEATHER SERVICE ALBANY NY
1200 PM EST THU FEB 27 2020

NOTE: "FAIR" INDICATES FEW OR NO CLOUDS BELOW 12,000 FEET WITH NO
SIGNIFICANT WEATHER AND/OR NO OBSTRUCTIONS TO VISIBILITY.

NYZ032-033-038>043-046>054-057>066-NYZ062>081-082-084-271800-
EAST


CITY           SKY/WX    TMP DP  RH WIND       PRES   REMARKS
ALBANY         FLURRIES  34  22  61 W14G26    29.46R WCI  25
GLENS FALLS    CLOUDY    31  21  66 SW16G28   29.37R WCI  20
POUGHKEEPSIE   PTSUNNY   38  18  44 W24G37    29.51R WCI  27
NEWBURGH       PTSUNNY   36  21  55 NW30G46   29.51R WCI  22
MONTGOMERY     CLOUDY    35  20  54 W26G37    29.51R WCI  22
WHITE PLAINS   PTSUNNY   38  18  44 W28G44    29.48R WCI  26
ISLIP          PTSUNNY   42  23  46 NW32G40   29.47R
NEW YORK CITY  FAIR      42  18  37 W30G41    29.53R
CENTRAL PARK   PTSUNNY   40  21  46 W17G31    29.56R WCI  31
$$

NYZ005>009-017-018-044>046-055-056-271800-
CENTRAL


CITY           SKY/WX    TMP DP  RH WIND       PRES   REMARKS
FULTON         MIX PCPN  28  19  69 W22G35    29.48S WCI  14
SYRACUSE       LGT SNOW  27  19  74 W25G40    29.50S BLWGSNOWWCI  11
ROME           FLURRIES  28  21  75 W18G31    29.48S WCI  15
ELMIRA         CLOUDY    29  18  63 W29G39    29.57R WCI  14
BINGHAMTON     LGT SNOW  24  18  77 W25G36    29.48R VSB 1   WCI   8
MONTICELLO     FLURRIES  29  22  75 W17G28    29.49R WCI  17
$$

NYZ026>034-041>043-087-271800-
NORTH


CITY           SKY/WX    TMP DP  RH WIND       PRES   REMARKS
WATERTOWN      SNOW      26  22  84 W23G38    29.41R VSB<1/4 WCI  11
FORT DRUM      NOT AVBL
OGDENSBURG     LGT SNOW  25  21  86 SW25      29.26R VSB 3/4 WCI   9
MASSENA        LGT SNOW  27  23  85 SW24G33   29.27R VSB 3/4 WCI  12
SARANAC LAKE   LGT SNOW  25  20  81 SW16G31   29.22R WCI  12
PLATTSBURGH    MIX PCPN  34  27  75 W14G23    29.20S WCI  25
$$

NYZ001>004-010>016-019>021-085-271800-
WEST


CITY           SKY/WX    TMP DP  RH WIND       PRES   REMARKS
NIAGARA FALLS  CLOUDY    23  16  74 W31G45    29.61S WCI   5
BUFFALO        LGT SNOW  24  15  68 W30G44    29.61S BLWGSNOWWCI   7
DUNKIRK        LGT SNOW  25  14  63 W23G39    29.70F WCI  10
JAMESTOWN      LGT SNOW  19  14  79 W25G31    29.65S VSB 3/4 WCI   2
WELLSVILLE     LGT SNOW  19  12  74 W28G44    29.55S VSB 3/4 WCI   1
ROCHESTER      LGT SNOW  24  15  68 W24G43    29.56R BLWGSNOWWCI   8
PENN YAN       FLURRIES  26  16  65 SW29G41   29.53R WCI  10
$$

             KEY
       WCI = WIND CHILL INDEX
       VSB = VISIBILITY
       HX  = HEAT INDEX
$$




USA.gov is the U.S. government's official web portal to all federal, state and local government web resources and services.